Wind_Gust
25 25 24 24 23 24 25 25 26 25 23 22 23 24 23 22 22 21 19 21 21 21 21 21 21 21 21 21 20 19 19 19 17 17 17 17 16 15 14 15 17 15 13 13 13 13 15 15 14 13 12 13 13 13 12 13 12 12 11 11 11 10 12 12 12 7 6 5 12 12 15 16 14 15 15 14 14 16 11 12 13 15 15 14 14
25 24 23 26 24 25 25 25 26 23 21 22 22 22 22 23 21 18 19 21 21 22 23 21 21 21 21 20 20 19 19 19 17 17 18 18 18 15 16 17 17 15 14 15 15 14 13 15 13 12 13 14 13 14 14 13 13 13 11 12 12 12 11 14 10 11 11 8 11 10 13 15 13 14 16 16 15 15 14 11 11 13 15 14 14
27 25 25 24 25 25 24 23 23 21 23 23 23 23 21 19 19 21 20 19 21 23 22 21 21 21 21 21 20 20 20 20 19 18 19 19 19 17 17 17 17 17 17 18 16 13 14 15 14 12 12 13 13 13 12 12 13 14 14 12 12 11 11 11 12 10 13 12 11 13 14 15 15 16 14 15 15 16 16 14 14 13 12 13 14
26 25 24 25 25 23 22 22 22 23 23 23 22 21 19 24 20 21 21 19 22 21 21 22 22 22 21 21 21 21 20 20 19 19 20 20 19 19 18 18 18 18 19 18 16 16 17 15 14 13 13 15 14 13 12 12 13 12 13 13 13 12 12 11 11 11 10 14 12 15 16 16 11 13 12 12 15 17 15 14 13 13 12 13 13
25 25 24 25 23 23 22 22 22 23 24 22 21 20 19 22 22 23 22 21 21 21 22 21 23 23 24 23 22 23 22 22 20 20 19 19 19 19 18 18 18 19 19 18 15 18 17 18 14 13 14 15 14 14 13 14 13 13 13 13 14 13 11 12 12 11 14 15 14 12 13 13 10 13 15 16 12 13 13 17 16 16 15 13 12
25 25 24 24 23 23 23 22 23 24 24 21 21 21 21 20 22 23 23 23 22 22 23 23 24 25 24 24 23 23 23 22 21 21 20 19 19 19 18 18 18 18 18 18 19 19 18 17 14 15 15 17 16 14 14 16 14 14 14 13 13 13 13 11 11 12 14 14 18 14 14 16 11 12 17 16 17 15 13 12 12 15 17 13 13
21 23 23 22 22 23 24 24 26 24 22 22 21 22 22 21 21 24 24 25 24 23 23 24 24 25 26 24 23 23 22 21 20 20 20 20 20 19 18 18 17 18 18 18 18 17 18 17 16 16 18 18 17 16 16 14 15 15 16 16 14 14 14 14 13 13 14 14 14 15 18 14 15 16 14 15 15 18 20 14 14 13 15 19 18
20 21 21 21 21 23 25 25 24 23 20 21 22 22 23 21 21 22 22 22 24 24 25 24 23 22 24 23 22 21 20 19 19 20 20 20 20 19 20 19 18 17 15 16 16 16 17 17 18 18 19 18 17 15 17 18 15 15 14 14 14 15 14 13 12 13 13 13 16 17 16 17 14 8 14 14 13 12 16 18 19 17 19 21 20
21 20 21 22 23 22 23 23 20 17 18 20 22 22 22 21 22 20 19 22 23 24 23 24 23 22 20 20 20 19 21 23 23 23 22 21 20 20 20 20 20 18 16 15 15 16 17 18 17 16 18 16 18 17 16 15 19 17 13 13 14 15 14 13 15 14 12 14 13 13 17 16 16 16 18 20 21 24 22 17 17 16 14 13 14
21 21 22 23 22 20 21 19 18 17 18 20 20 22 22 22 21 23 24 25 23 24 24 26 25 24 22 20 18 20 22 21 20 23 20 22 22 23 22 22 21 20 18 17 16 17 18 17 16 17 18 19 20 21 21 20 20 20 20 17 17 16 16 16 16 16 16 16 17 20 20 19 20 20 20 19 18 12 15 16 16 15 13 12 11
21 22 23 22 21 19 19 19 18 20 21 21 20 20 21 22 21 23 22 19 20 18 17 19 20 20 21 21 21 23 23 23 27 25 22 22 21 21 23 23 21 22 20 20 20 20 17 16 15 17 19 18 23 23 21 21 21 20 21 21 18 24 19 19 18 19 20 19 17 18 19 21 20 18 19 17 18 20 19 18 18 15 18 16 18
20 22 22 19 17 18 19 19 19 20 21 23 22 21 20 21 23 20 21 22 21 21 23 20 19 20 21 21 23 22 21 18 24 24 24 23 19 21 19 20 21 21 21 21 21 19 18 17 16 16 18 20 19 19 21 21 22 21 22 23 23 23 22 26 23 19 19 18 17 20 20 22 21 20 18 17 18 17 17 18 18 18 17 19 18
20 20 19 19 18 18 17 19 20 21 22 23 23 22 22 22 23 23 23 24 21 21 23 24 26 27 28 28 28 25 19 18 20 22 23 24 25 24 21 21 21 21 21 20 19 19 18 18 18 17 19 20 19 17 17 18 17 21 22 23 24 25 23 24 24 27 24 22 22 20 23 21 18 21 23 25 19 20 17 17 18 17 19 20 20
18 18 18 18 18 17 18 19 20 21 22 24 25 25 24 24 22 22 22 22 22 23 22 23 20 22 23 23 22 22 22 19 23 23 22 25 26 23 22 22 20 21 20 19 19 19 19 20 20 19 16 16 17 17 16 18 18 17 15 15 18 21 20 23 23 23 23 25 22 24 22 19 23 23 21 18 24 24 21 20 18 20 20 26 19
15 15 16 16 15 15 16 17 18 17 19 20 21 23 24 23 22 21 22 24 24 24 25 25 24 21 21 23 23 25 25 22 24 25 24 24 26 22 22 21 20 20 20 19 20 20 19 20 19 20 18 17 18 19 19 18 17 17 18 21 21 19 20 21 20 20 21 21 22 22 21 22 22 18 21 24 24 24 26 28 27 26 19 7 11
14 10 12 12 14 16 17 17 17 16 18 20 20 20 19 20 21 20 20 22 22 20 20 20 21 21 21 19 19 20 19 19 21 23 24 22 21 18 18 19 19 19 20 19 19 20 19 18 17 17 18 18 17 23 21 21 19 18 19 19 18 17 19 18 20 20 23 23 21 20 18 21 17 18 19 21 20 14 12 10 11 12 15 15 18
12 12 12 12 15 16 16 17 17 17 18 25 24 19 19 19 18 17 18 20 20 19 19 22 19 20 21 21 21 21 19 19 22 22 23 23 15 15 15 19 18 18 18 18 19 18 18 18 18 19 18 19 17 23 22 22 22 24 22 20 19 18 21 16 14 16 16 13 10 9 11 17 21 21 22 23 20 17 17 17 18 20 18 17 16
17 16 17 16 14 14 17 20 19 18 17 18 20 19 18 18 18 19 21 19 21 20 21 22 22 22 23 23 23 22 22 19 23 23 23 22 19 21 21 21 19 18 16 14 14 16 18 20 18 19 20 20 19 22 22 25 24 23 22 20 18 19 21 14 11 14 13 12 10 10 9 15 20 20 21 24 23 20 25 25 25 20 20 20 21
17 19 18 17 18 18 16 17 20 25 25 23 19 19 20 20 18 17 18 18 19 19 21 21 18 18 20 23 21 28 24 19 21 22 23 23 23 19 20 18 19 20 20 18 14 14 15 16 21 21 20 20 23 24 24 24 24 23 23 21 22 22 24 20 20 18 15 13 14 11 12 11 14 20 22 22 24 22 26 24 22 25 23 20 18
14 9 12 13 13 19 19 15 14 17 22 22 21 21 18 16 17 18 20 24 25 23 21 21 21 20 23 26 28 30 28 24 19 23 22 23 24 21 18 20 24 23 20 20 18 13 14 16 18 22 25 22 26 25 25 26 26 22 21 23 24 28 23 19 22 22 23 25 24 21 21 15 15 14 12 16 21 24 23 20 22 26 24 23 23
15 15 13 12 14 16 18 19 20 16 17 19 20 17 19 20 19 20 20 18 18 20 21 22 25 27 27 27 27 25 25 24 20 23 23 24 24 21 20 22 22 23 20 19 19 19 17 17 17 19 24 25 26 26 27 28 25 24 24 26 29 29 19 19 20 20 23 19 18 15 16 16 17 15 16 17 19 20 19 18 20 22 23 22 23
14 9 12 14 17 20 19 18 19 20 15 15 16 18 19 20 22 22 22 22 22 23 21 20 22 23 21 21 21 22 22 25 21 22 26 26 25 26 22 23 24 22 20 20 20 20 21 21 20 20 23 24 27 27 27 27 30 25 27 25 24 22 25 18 17 19 20 15 18 17 17 18 18 18 19 19 20 22 22 22 20 21 21 22 25
11 13 14 15 20 20 19 17 17 16 18 19 18 18 17 17 17 18 20 20 22 23 22 21 20 21 20 19 19 20 18 18 18 18 21 24 25 26 26 21 20 22 24 24 25 25 22 21 20 20 24 26 26 27 29 31 24 25 26 24 21 21 18 17 16 18 18 16 18 20 20 21 21 21 20 20 20 20 21 22 20 19 18 16 15
9 14 18 23 20 21 20 18 16 16 16 16 17 18 18 19 18 20 20 20 20 20 20 20 19 20 20 18 17 17 16 15 15 20 20 24 24 25 26 25 24 24 23 24 22 22 21 21 21 23 26 27 28 29 29 29 27 30 27 25 21 18 19 16 17 20 19 17 18 19 21 22 22 21 22 23 21 21 20 16 16 16 15 13 10
17 16 23 23 24 22 19 19 17 15 13 13 16 18 18 18 19 17 17 18 19 20 19 18 19 19 18 18 17 16 16 16 15 18 21 20 23 25 27 28 29 25 27 23 21 22 20 23 24 25 27 28 30 29 25 25 30 31 29 22 21 20 22 21 20 18 19 22 23 23 22 23 26 25 16 13 12 12 12 10 9 9 10 11 9
19 18 18 31 32 25 20 21 21 20 22 20 15 16 16 16 19 18 17 18 18 18 17 17 17 17 18 17 16 15 13 13 15 14 15 16 18 24 27 28 27 29 30 28 24 25 24 25 27 26 25 25 24 19 19 25 26 28 22 23 20 20 19 19 19 22 24 24 23 25 25 19 16 13 15 16 16 17 17 16 14 13 14 15 13
21 21 24 24 27 26 22 19 22 20 22 18 16 17 21 19 18 17 18 18 17 16 14 15 16 16 17 17 14 12 12 14 15 15 16 17 18 19 21 26 25 24 26 23 16 19 23 22 19 20 19 23 27 25 22 19 20 17 18 23 22 23 20 23 26 28 25 23 22 23 17 12 13 16 16 18 18 15 15 17 17 16 16 17 17
20 20 20 20 16 17 17 15 17 16 14 15 15 14 14 19 21 21 19 19 19 17 16 16 17 18 18 16 13 13 14 13 15 16 17 16 17 18 20 23 22 23 24 22 23 19 17 10 12 14 12 13 14 14 19 20 21 21 20 21 23 21 19 15 14 18 19 19 18 13 12 14 18 16 14 14 15 15 16 18 19 16 16 17 20
21 22 24 22 20 16 15 15 14 12 14 13 12 12 15 15 14 12 10 14 20 21 22 20 19 17 18 18 17 16 15 17 19 13 20 17 24 25 22 23 24 23 23 21 22 16 16 16 17 19 20 23 21 21 20 18 17 18 19 17 18 19 18 18 23 25 24 18 17 19 19 16 15 13 14 14 15 17 17 16 16 19 15 16 21
20 24 22 21 21 19 17 14 13 15 19 16 15 12 9 11 13 17 14 12 14 15 13 22 20 20 21 22 23 24 24 25 18 21 20 21 22 23 22 23 22 25 18 23 19 19 21 22 22 24 23 22 24 23 24 23 21 19 20 14 19 19 21 23 24 24 20 22 22 19 20 19 17 17 17 17 14 15 17 14 18 17 20 19 19
18 21 22 20 19 18 18 18 16 15 13 14 12 14 16 13 13 17 14 10 12 17 18 17 15 13 16 17 13 12 11 9 15 20 22 24 26 25 23 21 21 19 22 23 19 23 21 20 20 20 22 23 25 26 25 24 23 24 23 22 22 23 22 23 24 18 18 21 20 20 20 23 22 20 21 19 18 17 17 15 14 19 23 21 19
20 20 20 18 21 19 19 19 18 18 17 14 13 11 12 13 14 9 9 12 13 12 13 14 14 15 15 14 11 13 10 8 11 16 19 22 25 25 24 23 16 20 27 29 25 20 21 23 22 23 24 25 27 25 26 27 26 26 25 23 25 24 25 26 23 21 21 20 20 19 20 21 20 20 20 19 17 18 18 18 19 20 17 17 19
20 21 20 20 19 19 21 21 20 17 17 16 15 14 14 11 14 14 10 6 9 9 12 11 14 15 15 13 13 12 11 12 13 16 19 20 20 22 23 18 19 22 17 17 19 19 20 21 24 23 23 27 26 25 26 26 26 26 26 28 28 26 27 25 21 22 21 24 23 22 22 23 19 17 15 18 21 21 19 20 20 20 20 20 16
19 19 19 19 19 17 16 19 20 18 18 17 15 13 13 13 13 11 10 12 10 8 8 10 11 11 11 12 14 13 13 11 14 15 19 21 22 21 18 18 15 23 27 30 25 23 21 21 22 22 25 25 24 23 23 24 24 26 25 26 26 25 25 21 22 24 21 21 23 19 19 19 21 22 19 17 17 18 21 20 22 23 23 25 24
19 17 19 19 18 18 18 19 21 18 18 17 18 16 14 12 10 11 11 11 10 11 12 14 12 13 12 9 9 10 12 14 14 15 19 19 21 20 18 20 16 13 16 16 19 20 22 24 25 24 23 24 24 22 24 23 22 22 23 24 21 20 19 21 24 23 23 22 21 20 21 20 21 20 22 22 21 22 21 21 22 24 25 22 19
21 20 20 20 18 18 18 18 18 19 18 17 16 15 15 14 16 14 11 10 12 13 11 12 7 8 10 11 10 10 10 11 16 18 21 21 20 23 21 18 18 21 24 25 23 23 20 22 21 21 21 21 20 21 22 22 23 24 24 24 24 23 23 23 22 24 23 24 22 23 21 23 26 24 22 22 26 28 25 25 23 22 22 22 19
21 21 21 20 18 18 18 18 17 17 12 15 16 17 17 17 16 17 16 16 15 13 12 13 13 12 11 11 10 9 11 11 13 18 20 20 27 28 25 26 25 24 23 25 23 21 21 21 19 20 20 21 22 22 22 21 21 21 16 23 24 24 25 26 25 21 22 22 23 23 24 25 24 24 26 25 23 22 22 21 20 20 20 21 16
22 24 21 20 17 18 18 18 19 15 18 17 17 16 17 17 16 15 15 16 17 16 17 17 12 17 19 19 12 9 11 12 15 12 11 12 14 20 18 16 19 23 26 24 23 22 23 23 24 24 22 22 21 19 19 20 21 21 22 23 22 22 19 24 23 27 25 25 25 25 25 23 24 25 24 26 26 24 22 22 22 22 19 19 21
22 20 24 23 16 19 18 17 18 19 19 18 18 18 18 18 18 18 18 18 17 17 17 17 19 18 20 17 16 13 10 10 11 11 13 15 19 22 20 18 18 18 21 23 24 26 27 27 23 22 22 22 22 21 20 20 20 21 23 23 22 20 23 22 22 23 22 24 25 25 25 24 23 23 24 24 23 23 25 24 24 25 27 26 28
22 22 21 23 21 21 19 18 19 19 19 19 19 18 18 19 18 16 16 17 16 17 18 18 17 19 18 18 17 16 12 11 10 10 13 14 18 19 14 13 20 25 26 25 22 20 19 21 21 23 25 23 22 20 18 19 22 25 24 23 22 24 23 23 24 24 25 23 23 22 24 23 23 23 22 23 26 28 29 29 28 28 29 24 22
20 20 16 17 20 21 20 21 21 20 19 19 19 19 19 18 17 16 17 17 17 16 17 18 18 16 17 20 18 15 12 13 13 13 14 18 16 15 14 17 20 21 19 18 18 20 22 22 24 25 23 24 24 22 21 20 18 18 19 20 21 21 22 20 21 22 21 21 23 22 21 21 21 25 28 29 22 24 23 22 21 21 21 21 24
20 20 21 20 21 22 21 21 20 20 18 18 21 20 19 19 19 18 18 17 16 16 17 17 17 16 17 23 19 17 15 15 13 13 14 16 15 16 14 17 20 21 20 21 22 22 24 25 25 22 21 20 18 17 15 17 18 20 20 27 27 24 22 23 23 22 22 23 22 23 23 24 27 30 31 17 22 21 21 23 24 24 22 23 23
18 18 18 18 20 21 21 20 20 21 21 21 20 14 17 20 20 19 19 19 18 18 18 19 18 17 18 16 19 14 17 18 11 16 17 16 16 16 17 21 22 21 21 18 18 18 18 20 21 19 19 19 20 19 23 24 23 23 26 24 25 26 27 25 22 22 21 21 22 23 25 25 25 24 23 21 24 24 26 27 26 26 26 26 25
18 18 18 18 18 18 19 19 20 20 19 17 17 19 19 19 20 20 20 20 20 19 19 19 18 19 18 20 19 20 21 20 20 19 18 17 18 18 19 20 20 20 19 18 17 17 18 19 20 19 16 17 16 15 17 19 23 25 26 27 25 23 23 22 23 25 27 26 25 23 23 23 24 23 23 23 24 25 25 24 25 25 25 25 25
18 18 18 19 19 20 21 20 19 19 19 18 20 20 20 20 21 20 20 20 19 19 19 19 19 19 20 21 21 21 22 20 18 19 20 21 17 19 19 18 19 18 19 19 19 18 18 19 20 19 19 18 16 18 19 17 20 23 24 26 26 27 29 31 31 29 26 25 25 24 24 24 24 23 23 23 24 25 26 26 27 21 26 26 27
17 17 18 18 18 19 19 20 18 19 20 20 21 22 21 21 20 20 20 20 20 20 20 20 20 20 20 21 21 20 21 21 21 20 18 19 20 21 20 21 20 18 17 16 17 17 19 20 19 19 19 18 17 17 17 20 23 24 26 26 29 30 28 27 24 22 22 25 26 25 25 23 24 24 24 26 25 25 26 25 23 26 28 29 30
18 17 17 17 17 17 17 17 19 19 20 20 20 20 21 21 21 20 20 22 21 19 20 20 21 22 22 22 22 22 21 21 21 20 20 20 21 21 19 20 22 21 20 18 17 19 19 20 20 20 19 19 18 18 19 19 20 21 21 21 21 21 19 18 21 24 25 25 24 23 25 25 24 21 24 23 22 24 23 25 27 28 28 28 28
16 17 18 17 17 18 18 18 20 16 19 19 19 19 19 20 21 21 20 21 22 21 21 21 21 20 20 21 20 20 20 20 20 20 20 20 20 20 21 20 20 20 20 20 19 18 17 18 19 19 19 19 17 18 18 17 17 18 18 19 20 21 21 19 20 20 19 20 21 22 23 24 22 22 23 25 25 24 24 24 22 22 24 25 23
16 18 19 19 18 19 19 20 17 19 19 18 19 21 20 20 20 20 20 20 20 20 20 21 21 20 20 20 20 19 19 19 20 20 21 20 21 20 20 20 20 22 20 20 20 20 20 19 17 17 18 18 18 19 17 16 17 17 17 16 18 20 22 23 19 21 19 20 18 17 17 19 20 21 22 23 23 23 24 21 21 22 21 19 20
13 15 17 17 17 17 16 16 18 19 17 18 19 20 20 19 20 20 20 20 20 21 21 20 20 20 20 20 21 21 20 21 21 21 20 20 21 21 22 21 22 22 22 22 22 22 21 21 21 20 18 17 17 18 17 17 17 15 13 14 14 17 18 19 17 18 21 17 19 18 20 19 17 17 18 20 20 20 19 19 19 18 19 20 19
13 14 13 15 16 15 16 18 17 18 19 18 19 19 19 20 20 20 20 21 20 21 20 21 21 21 21 21 19 21 21 21 21 21 21 22 22 22 23 23 24 23 22 22 22 22 22 22 21 21 20 19 18 18 18 17 17 18 14 15 16 16 16 14 14 14 15 12 14 14 16 18 18 18 17 16 16 17 18 19 19 20 20 20 19
Wind_Speed
8 9 9 12 12 11 11 11 12 12 12 11 11 12 12 11 12 12 11 12 12 12 12 13 13 12 12 11 12 11 12 11 10 9 9 10 9 9 8 9 10 8 7 8 8 8 9 9 9 8 7 7 7 7 7 7 6 6 6 6 6 6 7 6 6 3 1 1 6 6 8 8 7 8 7 6 6 8 6 5 6 6 6 6 7
7 8 7 9 12 12 12 12 12 11 12 11 11 10 11 11 11 10 12 12 12 12 12 11 11 12 11 12 11 11 11 11 10 9 10 10 9 7 8 9 9 9 8 9 9 8 8 9 8 8 8 9 8 8 7 7 7 6 6 6 6 7 6 7 5 6 5 3 5 5 7 8 6 7 9 8 7 7 8 6 5 7 6 6 7
8 7 7 8 12 11 11 11 12 13 13 11 11 11 11 11 10 11 11 11 11 11 11 11 11 11 10 10 11 11 11 11 10 11 11 11 11 9 9 10 10 10 10 11 10 8 9 9 8 7 6 8 8 8 7 8 7 7 8 7 7 7 7 6 6 5 6 6 6 7 7 8 7 8 8 7 8 8 8 7 6 6 5 6 7
8 8 8 10 11 10 10 11 13 13 13 12 13 12 10 10 10 11 11 10 11 10 10 11 10 11 11 10 10 11 11 10 10 11 12 12 11 11 11 10 11 11 11 11 10 9 11 9 8 8 8 9 8 7 7 7 7 6 7 7 7 8 7 6 6 6 4 7 7 8 8 8 5 7 6 6 7 8 7 6 6 6 6 6 6
8 8 9 10 9 11 12 12 13 14 15 13 13 12 10 10 10 11 10 10 10 10 10 9 10 11 11 12 11 11 11 11 11 11 10 10 11 11 11 10 11 11 11 11 9 10 10 10 8 8 9 9 8 8 7 9 8 7 7 7 7 7 6 7 6 6 7 7 7 5 7 6 4 6 7 7 6 6 6 8 8 8 7 7 6
9 9 8 9 9 12 13 13 14 15 15 13 14 12 11 11 10 10 10 11 11 11 11 11 11 12 11 12 11 11 11 11 11 11 11 10 9 10 10 10 11 11 10 10 10 10 10 9 8 8 9 10 9 8 8 10 8 8 9 8 7 7 8 7 6 6 8 7 9 7 8 8 5 5 9 8 8 7 7 6 6 7 8 6 5
9 9 8 9 10 12 13 14 15 14 13 12 11 11 11 11 11 11 11 11 11 11 11 12 11 11 12 11 12 11 11 10 10 10 10 9 10 10 10 10 10 9 9 10 10 10 10 9 9 9 10 10 9 9 9 8 8 9 10 10 8 8 8 8 7 7 7 7 7 8 9 8 7 7 6 8 8 8 9 7 7 7 6 9 8
9 9 9 9 11 13 14 15 15 14 12 10 10 11 11 10 11 11 10 11 12 12 12 12 11 11 10 10 10 9 9 10 9 9 9 9 9 9 9 9 10 9 9 9 9 9 9 9 9 10 10 10 9 9 10 10 8 8 8 7 8 8 8 7 7 7 7 6 8 9 8 8 8 4 7 7 7 6 8 9 10 9 9 8 8
10 9 9 11 12 13 14 13 12 11 10 9 9 10 11 11 10 10 10 11 10 11 10 10 9 6 1 2 1 1 3 4 5 7 8 9 8 9 9 8 8 8 8 8 8 8 8 8 9 10 11 12 15 13 13 12 9 8 7 7 8 8 8 7 8 7 6 6 6 7 8 9 8 9 10 11 12 11 8 8 8 8 7 6 7
10 10 11 12 12 12 13 11 11 10 10 11 11 10 10 10 10 10 10 10 9 9 9 9 10 10 10 8 7 6 7 8 8 13 10 5 7 6 7 7 8 7 7 7 7 8 9 9 9 13 15 16 16 17 17 16 15 12 10 8 9 8 8 9 8 8 8 8 8 10 11 11 11 11 11 10 8 6 8 9 9 8 7 7 6
10 10 11 12 11 11 11 11 11 12 12 11 10 10 10 9 9 10 9 9 9 8 8 9 8 9 10 9 9 8 10 12 23 23 18 13 8 7 6 7 7 7 7 7 8 8 8 9 8 11 14 15 16 19 16 16 16 15 16 17 14 13 9 9 8 9 9 9 8 10 10 12 11 10 10 8 9 11 9 9 8 8 10 9 8
10 10 11 11 10 11 11 11 11 11 11 11 11 10 9 9 9 9 9 10 8 7 8 9 9 9 9 9 9 10 10 9 14 19 19 19 16 12 9 7 7 7 7 8 7 8 9 8 8 7 9 12 11 12 14 16 16 16 16 17 17 17 16 14 10 8 8 8 8 10 11 12 12 11 9 9 10 9 10 9 10 9 10 9 8
9 10 11 11 11 11 11 11 11 11 11 11 10 10 10 10 10 9 10 10 9 10 10 9 10 10 10 11 10 11 11 13 17 17 16 16 19 17 11 10 9 8 9 9 9 9 8 8 8 8 8 11 10 9 9 11 13 17 17 18 18 18 16 17 16 15 11 11 12 11 9 9 9 11 13 13 11 11 9 9 9 9 8 9 10
8 10 10 11 10 10 11 11 12 11 11 10 10 10 11 11 10 9 8 8 9 10 10 10 9 10 11 11 12 11 12 13 17 19 18 19 19 17 12 12 12 11 11 11 10 10 10 9 9 9 8 7 8 9 9 10 10 9 8 8 9 13 15 18 19 19 16 13 12 11 11 10 11 12 12 10 13 13 11 10 9 9 10 13 10
8 9 9 9 9 9 10 11 10 10 10 10 10 10 11 10 10 9 9 9 10 10 11 11 11 11 11 11 11 11 10 15 17 18 18 17 17 14 11 11 11 11 12 12 12 11 11 10 10 10 9 8 8 11 10 9 9 9 10 11 10 10 10 11 11 11 11 11 12 13 12 13 13 11 12 13 14 11 12 14 14 13 10 4 5
6 6 7 8 9 9 10 10 10 10 10 10 11 11 11 11 11 9 8 8 8 8 8 9 10 10 10 11 10 10 10 15 17 18 19 18 12 7 8 9 10 11 11 11 11 11 11 11 10 10 10 10 12 16 14 10 10 10 11 11 10 10 11 13 15 15 14 13 12 11 10 12 13 10 11 12 11 8 6 4 5 6 7 7 9
5 5 6 6 7 7 8 9 9 10 10 10 11 10 10 10 9 8 9 8 8 9 9 9 9 9 10 10 11 11 11 14 17 18 19 19 12 7 9 9 9 10 10 11 11 11 11 11 11 10 11 11 13 17 16 14 11 12 12 12 11 10 11 9 11 14 14 12 8 7 9 13 14 16 18 20 14 11 8 9 10 10 10 10 9
0 2 4 5 6 6 6 7 8 8 9 10 10 10 10 9 10 10 11 10 10 10 10 9 9 10 11 11 12 11 11 12 18 19 19 18 14 12 11 11 11 10 10 9 8 9 11 17 14 12 12 12 15 17 18 16 12 12 12 12 10 11 12 8 6 7 11 11 8 5 7 13 17 17 18 20 20 16 13 13 13 9 10 9 9
3 3 3 1 2 4 6 7 8 8 9 9 9 9 9 9 8 9 9 10 10 10 10 10 10 10 11 12 14 14 11 11 15 17 16 17 15 10 10 10 10 11 11 10 8 8 9 11 17 15 14 15 17 18 19 17 13 13 12 11 11 12 13 11 11 10 8 7 8 6 5 7 8 12 13 18 19 17 14 13 11 13 12 9 9
3 3 3 4 4 4 3 4 5 6 6 4 4 6 6 6 7 8 8 8 8 9 9 10 12 11 11 12 12 13 13 11 13 19 17 17 19 12 10 10 12 12 11 11 10 8 8 8 12 19 19 18 17 19 19 21 15 13 11 11 12 15 12 10 13 12 12 13 13 12 12 9 8 8 7 10 12 16 14 11 11 11 11 10 11
3 3 5 6 5 4 4 4 4 3 3 4 4 5 6 7 8 9 9 9 9 10 11 10 11 11 11 11 12 12 12 12 11 17 17 18 20 16 10 12 12 12 10 10 10 9 9 9 9 15 20 19 18 19 20 21 20 14 12 13 14 17 9 9 12 14 12 12 11 9 9 9 9 8 9 9 9 11 11 11 11 12 12 11 12
4 1 3 5 6 6 6 5 6 6 5 4 4 5 4 5 6 8 8 8 10 11 11 11 11 11 10 11 12 13 13 15 10 12 17 18 19 21 12 13 13 12 10 9 10 10 11 11 11 14 19 19 18 20 21 20 22 14 14 18 20 15 10 11 8 10 10 8 9 9 9 10 9 9 10 10 11 12 12 12 12 12 12 11 12
5 1 1 1 3 5 6 6 6 4 5 5 5 5 5 6 7 7 8 9 11 11 11 10 10 10 10 10 10 11 11 11 15 11 17 19 19 19 19 14 15 12 11 11 12 12 11 12 12 15 18 20 21 21 20 22 17 15 20 20 18 16 11 7 8 9 9 9 9 10 10 10 11 11 11 10 10 11 11 12 12 11 10 9 8
6 5 6 6 5 2 1 4 5 5 6 5 4 6 6 7 8 8 8 9 10 11 10 10 10 10 10 9 9 9 9 8 11 16 14 19 19 20 20 17 14 13 12 11 11 11 11 11 11 17 19 20 21 20 20 21 15 20 21 21 14 12 9 8 8 10 11 9 10 10 10 11 11 11 12 12 11 11 10 9 9 9 9 7 6
7 6 3 2 1 1 1 3 5 5 5 6 6 6 7 8 8 8 8 9 10 10 10 9 9 9 9 9 9 8 7 7 7 11 16 16 19 19 19 20 17 15 13 12 11 11 12 15 17 18 18 18 20 21 19 19 21 20 22 16 10 8 10 9 10 9 10 10 11 11 11 12 13 13 9 8 8 7 6 6 5 5 3 4 3
11 9 7 6 4 2 3 5 6 6 7 7 8 7 7 8 9 8 8 9 8 8 9 9 9 9 9 9 9 7 7 7 7 7 9 12 13 18 20 20 20 19 18 15 17 16 15 16 18 19 18 18 13 11 8 12 18 20 10 10 9 9 9 9 8 10 11 12 12 12 12 10 9 6 7 8 9 10 9 8 8 7 7 7 6
12 10 9 11 14 14 13 8 4 6 8 7 7 7 6 8 9 9 10 9 9 8 8 8 8 8 9 8 8 7 7 7 8 8 9 9 9 11 13 14 16 16 13 13 12 11 13 13 11 12 9 13 13 11 9 9 8 4 6 9 10 10 10 11 12 13 12 11 10 10 8 5 5 6 7 9 9 8 8 9 8 8 8 8 8
10 10 12 11 8 9 9 12 12 7 5 5 5 5 6 7 9 10 10 9 9 9 9 8 8 8 9 8 7 7 8 7 8 9 9 9 9 9 9 11 10 9 11 9 11 11 9 9 8 4 5 4 6 4 6 7 8 8 8 9 11 11 12 13 10 9 10 10 9 5 4 6 9 9 7 7 8 7 8 9 10 9 8 9 8
11 11 12 11 9 7 8 9 8 4 4 6 5 6 7 7 7 6 5 5 8 11 11 10 10 9 9 9 9 9 8 9 10 11 13 13 10 9 9 11 11 9 13 17 13 9 6 6 6 7 7 8 7 8 8 7 7 9 10 9 9 10 9 9 11 13 12 10 9 9 10 8 7 6 7 8 7 8 9 9 9 9 7 8 10
12 10 8 7 7 8 8 8 6 7 4 2 1 2 3 2 3 4 5 6 8 8 4 6 9 9 10 11 11 11 11 12 16 18 17 17 18 18 16 15 15 13 13 18 10 4 6 8 7 6 7 6 6 5 7 8 9 8 9 10 10 10 10 10 11 11 10 10 11 10 10 10 9 8 8 9 7 7 9 9 9 8 9 9 9
9 10 11 9 9 7 7 7 9 7 7 7 1 3 4 4 3 2 2 2 4 3 4 8 13 11 10 9 8 11 11 4 4 12 14 15 16 17 16 16 16 16 10 7 7 8 7 7 7 7 8 8 9 10 10 10 10 10 10 9 8 10 9 10 11 9 9 10 10 10 10 12 11 9 8 10 9 8 9 8 7 9 9 8 8
7 8 8 10 11 8 7 8 8 9 9 8 7 6 4 3 4 2 6 7 3 3 2 2 5 11 12 8 5 7 7 7 7 11 14 15 15 16 16 15 13 12 10 13 6 7 9 9 9 9 9 9 9 8 8 8 8 9 8 8 9 9 10 12 12 11 10 10 10 9 10 10 10 9 9 9 9 9 9 10 9 10 9 9 10
9 10 9 8 8 11 10 10 8 9 8 8 8 8 7 2 2 2 5 2 7 7 6 3 2 4 6 5 2 2 3 4 4 4 5 11 14 15 14 12 12 14 13 8 6 7 8 9 9 7 7 8 8 8 8 8 9 9 9 9 9 9 10 12 9 10 10 10 10 10 10 9 9 9 7 9 11 10 10 10 9 9 10 10 8
9 9 10 9 8 8 10 11 11 9 7 7 7 7 7 7 7 6 5 7 6 4 8 9 5 4 5 6 9 8 5 2 3 6 7 2 4 7 7 5 9 15 15 11 9 10 9 9 9 9 9 9 8 8 8 8 8 8 8 9 10 9 11 10 9 10 9 8 10 8 9 9 9 10 10 9 9 9 9 9 10 11 12 12 12
10 11 15 13 8 9 9 9 10 9 10 10 9 8 7 7 5 6 6 6 5 5 5 5 5 8 4 4 7 6 2 1 4 7 8 9 10 12 11 7 5 5 9 7 9 9 9 9 10 9 8 9 9 9 9 9 8 8 8 9 9 9 9 9 10 11 11 10 10 10 10 9 10 9 8 10 10 9 10 11 11 12 13 11 10
10 9 10 12 9 9 9 9 9 10 10 9 8 7 7 7 8 7 6 5 6 7 5 6 4 6 9 9 9 9 10 9 8 4 5 11 15 16 7 6 5 7 10 10 9 10 10 9 9 9 8 9 9 9 10 10 10 10 10 10 10 10 10 9 9 9 11 12 12 11 10 10 10 9 7 6 10 12 13 13 12 12 12 12 11
9 9 9 9 8 8 8 9 9 10 8 9 9 9 9 9 8 9 8 9 8 7 7 8 8 7 7 7 8 8 10 9 7 6 7 9 13 9 5 7 7 7 8 8 8 7 8 8 9 9 9 9 9 10 9 10 9 9 8 10 9 8 4 6 9 9 11 7 7 8 9 9 9 9 10 11 11 11 11 11 10 9 10 12 10
9 10 10 11 8 7 8 8 9 10 10 9 9 9 9 9 9 8 8 8 9 8 9 9 9 9 10 10 10 6 6 3 5 8 7 4 3 4 3 3 4 5 7 8 8 8 8 8 8 8 8 7 8 7 7 8 8 8 9 9 8 7 13 13 14 11 8 9 10 10 11 11 12 11 10 11 12 11 11 10 8 8 8 10 11
9 13 15 13 10 9 8 9 9 10 9 9 9 9 10 9 10 9 9 9 9 9 9 10 10 9 11 9 8 7 6 6 6 6 4 1 1 1 2 3 3 4 5 6 5 6 7 7 7 6 6 6 6 5 6 6 6 7 8 8 8 8 12 11 11 10 10 10 10 10 9 9 9 10 11 11 10 10 11 12 12 13 13 13 14
9 9 11 15 10 11 9 9 9 10 10 10 10 9 9 10 9 9 8 9 9 9 9 9 9 10 10 10 9 8 7 6 6 5 5 5 2 1 1 2 3 4 4 6 5 5 5 7 7 7 7 7 7 7 5 6 6 8 8 8 7 9 11 11 9 8 9 10 10 9 9 10 9 8 7 9 12 13 14 15 15 15 15 12 9
7 9 8 10 11 10 10 10 10 10 10 10 9 10 10 9 9 9 9 9 9 9 9 10 10 9 10 12 15 11 6 7 7 7 7 6 5 5 4 3 3 4 3 4 5 4 5 6 6 7 7 7 6 5 6 6 7 7 8 7 7 7 10 10 10 8 9 10 11 11 11 10 9 10 10 11 13 12 11 11 10 9 8 8 12
8 8 9 9 10 10 10 10 10 11 10 10 10 10 10 10 10 9 9 9 9 9 9 9 9 8 12 19 16 15 9 8 7 7 7 8 7 7 5 5 5 6 6 6 5 5 5 5 6 6 6 6 6 5 5 6 7 8 8 9 8 7 7 8 8 8 9 10 10 11 10 11 11 12 14 13 11 9 7 8 10 12 11 11 11
8 8 8 9 10 10 9 9 9 9 10 10 10 9 10 10 10 10 10 10 10 9 10 10 10 9 10 13 14 12 9 10 8 9 9 9 9 8 9 9 8 8 7 6 6 6 6 7 7 6 6 6 6 5 6 7 7 8 8 9 9 9 9 8 7 8 8 8 8 10 10 10 10 10 10 10 10 10 11 12 11 11 12 13 13
8 8 8 9 9 9 9 9 10 10 9 10 10 11 10 10 10 10 10 10 10 10 10 10 9 10 10 11 12 11 11 11 11 10 10 9 10 9 9 9 10 9 9 9 7 7 7 7 7 8 7 7 6 6 6 6 7 8 8 9 8 9 9 8 9 9 9 9 9 8 9 9 10 10 10 10 10 11 11 11 12 12 12 13 13
8 8 8 9 9 9 9 10 10 10 11 10 10 10 10 10 10 10 10 10 10 10 10 9 10 10 10 11 11 11 12 10 10 10 10 11 9 10 10 9 10 10 10 10 10 9 9 8 8 8 8 8 8 8 7 6 6 8 8 9 8 9 10 11 11 10 8 9 9 9 9 10 11 11 11 10 11 12 12 13 13 13 13 13 14
8 8 9 8 9 9 9 9 9 9 10 10 10 10 10 10 10 10 10 10 10 9 9 9 10 10 10 10 10 11 11 11 11 10 10 10 10 11 10 10 9 8 8 8 9 9 9 9 8 8 9 9 8 8 8 8 8 8 8 9 10 11 10 10 10 9 10 11 10 9 10 9 9 9 12 11 11 12 13 13 12 13 14 14 14
10 9 8 8 8 7 8 8 8 9 10 9 10 10 10 10 9 10 10 11 10 10 10 10 10 10 10 10 10 11 10 10 10 10 11 11 11 11 10 11 11 10 10 9 9 9 10 9 10 10 10 10 9 9 8 8 8 8 8 9 9 10 10 9 9 10 11 11 10 9 9 9 10 9 11 11 10 11 12 12 13 15 15 15 15
9 9 10 9 8 9 9 9 9 9 9 10 9 10 9 9 10 10 10 10 11 11 10 10 10 10 10 10 9 9 9 9 9 10 10 10 10 10 11 11 11 10 10 11 10 10 9 9 10 10 10 10 9 9 9 8 8 8 9 9 9 10 11 11 10 10 10 10 10 10 10 10 9 9 9 11 12 11 12 12 12 11 12 11 9
9 9 8 10 9 9 10 10 9 10 9 9 9 10 9 9 9 9 9 10 10 10 9 10 10 10 10 10 10 10 10 10 10 10 10 10 10 10 11 11 12 12 11 11 11 11 11 10 9 9 10 10 10 11 10 8 8 8 8 8 10 14 15 16 12 10 11 10 9 10 9 9 9 9 9 10 12 11 12 11 11 11 11 10 11
7 8 9 9 8 8 8 8 9 9 9 8 8 8 8 8 9 10 9 9 9 9 9 9 9 9 9 10 11 10 10 10 11 10 10 10 10 10 11 11 12 12 11 12 11 12 11 11 11 11 9 8 9 9 9 10 10 9 7 8 11 13 14 15 15 14 10 7 8 8 9 9 8 8 7 9 9 9 10 10 9 8 9 10 10
6 6 7 8 8 8 8 8 8 8 8 9 8 8 8 8 8 8 8 9 10 10 9 9 9 9 10 9 9 9 9 8 8 9 9 10 10 10 11 11 12 12 12 12 12 12 12 12 11 11 11 10 10 9 8 8 9 11 10 11 10 10 9 8 7 9 10 7 5 6 6 8 8 8 8 7 8 8 8 7 6 6 6 6 7
Wind_Direction
246 248 232 222 218 195 188 188 192 203 222 227 212 201 200 197 198 199 194 200 201 202 202 204 206 203 199 196 195 192 192 192 193 194 195 197 196 196 191 194 203 210 206 209 207 198 201 204 197 196 182 183 185 174 177 178 177 179 170 164 168 163 161 165 182 167 166 141 181 170 172 166 170 180 167 164 162 185 185 162 158 161 168 168 172
252 250 250 230 215 204 191 189 196 198 209 219 223 209 201 198 198 193 199 203 200 201 202 203 205 203 200 196 194 194 193 194 191 191 197 198 196 191 192 195 204 208 203 214 207 207 202 206 203 184 181 192 182 179 176 166 173 166 174 176 177 177 185 159 176 153 174 151 164 160 159 171 173 174 174 171 170 172 180 171 168 176 172 168 176
257 254 251 248 224 213 196 192 192 194 201 208 219 220 208 199 194 196 199 201 202 203 203 203 202 202 204 202 195 195 195 196 194 192 198 198 196 194 194 196 202 206 209 214 208 201 204 210 202 178 172 182 191 188 170 171 168 173 180 180 180 182 183 177 139 164 162 184 165 165 170 174 181 177 178 178 170 173 174 173 172 180 179 177 180
254 252 251 246 231 208 201 198 194 195 199 202 208 216 211 200 197 201 201 197 199 202 203 203 201 202 205 206 203 200 197 196 195 199 201 199 198 197 196 199 203 209 211 212 207 201 208 206 201 176 173 184 187 182 178 168 169 176 176 187 178 171 180 179 177 143 163 164 190 176 174 169 177 173 163 165 165 173 181 170 173 180 176 181 187
255 250 254 256 234 205 201 198 199 200 201 198 200 204 208 205 199 199 198 202 200 199 202 203 205 205 209 209 204 204 201 196 196 201 205 203 200 198 198 200 205 210 212 212 207 205 206 208 188 175 179 189 187 182 175 174 178 171 180 179 182 165 163 183 174 153 150 174 170 172 163 169 156 163 164 159 171 179 171 177 184 184 190 191 190
250 248 248 253 239 209 199 199 203 204 202 198 194 193 200 205 201 197 196 200 199 201 201 199 205 208 212 214 211 206 202 198 199 202 203 203 203 202 200 201 206 210 211 213 211 206 208 200 182 178 187 195 193 183 177 183 174 181 180 177 174 156 163 173 172 164 159 162 161 158 171 167 157 165 178 173 163 170 183 183 179 191 189 189 191
245 244 244 243 236 210 200 201 204 204 201 198 191 186 192 201 200 198 196 198 199 201 205 206 206 207 209 211 215 209 203 199 199 201 201 201 204 204 202 203 206 209 212 212 210 207 204 194 181 182 197 201 192 183 182 185 183 190 190 177 165 160 163 165 169 163 154 150 168 173 170 175 165 164 173 178 178 179 177 171 189 189 194 197 201
240 238 239 240 232 211 202 203 203 201 196 192 189 186 187 195 202 200 195 199 202 203 204 207 208 211 217 220 218 209 197 197 201 201 201 201 203 205 203 203 206 208 210 209 207 207 203 196 186 186 202 202 196 190 184 186 185 192 194 174 160 162 163 161 160 158 153 160 170 176 181 168 168 145 149 162 172 199 191 179 189 189 199 203 203
234 232 233 236 229 210 202 202 200 195 186 182 187 187 187 193 200 199 197 200 202 204 204 203 201 187 156 88 58 7 322 268 210 198 197 205 203 204 205 205 205 209 213 213 211 210 209 204 197 190 198 202 200 195 194 187 178 184 186 178 164 169 164 168 166 160 163 160 168 169 171 177 175 162 164 180 192 191 174 180 190 194 189 192 209
234 232 231 232 225 207 198 195 188 182 179 183 188 188 187 189 194 200 202 202 201 197 196 196 199 200 203 196 199 190 199 226 238 266 274 240 205 205 204 207 205 208 212 216 217 218 217 213 208 194 195 202 202 202 200 193 187 185 177 181 173 172 175 171 173 172 165 169 175 173 179 190 186 189 183 194 176 162 162 177 193 188 173 199 204
230 231 235 235 225 201 189 189 180 181 183 183 182 183 186 185 192 196 198 198 196 191 186 190 191 196 196 199 206 204 209 203 196 201 207 217 219 227 223 212 207 205 208 208 215 218 227 227 223 205 199 205 206 204 200 196 194 192 184 185 181 180 176 177 184 181 175 180 172 177 186 193 197 191 194 179 181 183 177 178 186 166 177 181 201
229 234 237 237 219 195 187 182 181 182 179 181 181 183 181 182 191 193 189 190 190 180 187 194 190 191 192 195 200 199 209 215 207 203 199 195 187 195 211 214 203 206 204 207 213 215 220 225 227 224 216 214 209 201 201 199 197 196 191 192 192 193 184 182 184 188 190 178 174 188 186 197 196 192 191 181 183 181 188 186 184 176 181 193 200
228 235 233 225 207 188 179 177 180 178 181 181 179 175 177 184 191 194 193 190 182 186 197 193 191 191 192 197 201 202 214 197 192 203 209 203 194 192 201 197 199 202 203 206 212 213 213 215 223 226 232 223 213 200 191 198 204 202 197 196 198 197 200 199 189 190 186 196 194 194 190 184 184 197 195 192 180 181 177 186 189 189 191 199 210
227 231 223 211 195 180 174 175 177 180 178 175 172 175 179 186 190 195 195 184 186 191 194 198 195 192 194 197 204 208 210 194 193 197 200 202 202 196 202 196 197 200 202 206 209 211 209 210 215 224 226 215 207 202 196 196 187 194 205 209 211 212 207 203 203 199 188 196 197 201 200 183 188 197 192 169 173 186 180 191 181 194 196 209 210
229 216 206 198 182 171 170 171 175 173 172 171 173 178 181 184 188 190 190 191 190 191 195 198 201 199 196 198 204 212 214 196 192 198 203 203 205 202 211 206 201 201 202 203 206 206 206 207 212 217 210 206 201 200 196 195 189 195 201 206 212 204 203 211 209 206 203 207 203 209 194 197 202 187 171 182 190 186 184 188 186 195 192 98 71
211 193 190 182 175 171 169 171 173 172 173 175 179 184 183 183 186 185 188 193 195 198 204 205 208 207 203 203 207 213 216 202 199 198 201 205 193 201 230 221 212 206 203 203 205 205 204 203 205 207 206 209 208 198 196 188 190 195 202 210 213 216 222 221 210 205 204 205 207 206 202 197 198 168 165 177 192 185 171 130 142 170 174 188 203
179 173 177 172 168 166 168 168 170 172 175 178 183 183 180 179 182 175 186 186 187 192 201 205 208 208 207 208 210 216 218 206 200 200 199 196 174 188 206 220 224 220 213 207 205 204 202 201 201 203 206 212 205 194 196 182 199 201 206 209 209 209 227 221 213 218 228 233 231 213 185 181 174 165 168 179 182 170 159 168 184 184 185 191 201
65 163 168 164 152 146 150 157 164 169 174 184 186 185 182 182 184 180 187 188 191 194 198 205 206 206 208 212 212 216 221 211 203 204 197 187 180 190 197 202 213 220 226 216 204 204 206 201 198 201 204 212 199 189 193 189 203 206 208 211 207 215 227 210 197 214 215 220 221 205 187 186 184 176 177 183 178 166 171 186 187 171 189 191 197
36 47 31 48 94 138 152 158 167 173 184 192 185 182 184 186 186 183 192 193 199 198 198 203 207 207 210 214 213 216 221 217 206 210 199 181 183 194 195 202 204 214 215 216 211 207 208 202 199 201 206 210 191 189 192 193 205 208 208 206 213 219 224 198 198 199 193 202 226 203 230 215 192 190 198 185 179 183 189 189 168 181 190 191 191
175 149 127 116 111 112 125 148 164 178 186 174 162 174 167 165 173 180 193 197 202 205 203 204 207 210 208 211 214 215 220 219 203 203 194 184 185 186 188 192 211 211 210 210 205 207 204 205 208 207 207 207 190 191 193 196 203 210 204 202 213 224 220 195 205 198 199 199 210 202 207 194 195 198 184 182 194 196 196 187 178 181 186 188 193
312 130 134 133 130 132 132 144 159 180 184 186 188 185 178 183 183 190 194 200 207 209 208 207 211 213 209 211 217 218 218 219 209 196 195 186 189 188 190 196 207 212 202 208 209 208 208 209 209 210 210 206 192 193 197 201 206 207 202 209 209 223 196 192 203 194 206 208 212 196 199 194 200 188 190 181 189 202 200 197 190 191 186 185 191
323 73 118 132 139 146 152 159 164 176 184 174 185 214 222 206 196 197 202 206 213 216 212 211 211 212 209 210 217 221 218 215 210 193 196 194 193 196 195 203 202 210 213 209 208 212 212 211 214 210 206 205 198 198 201 203 208 209 212 213 218 203 170 199 183 191 211 199 203 197 196 200 201 195 194 191 192 198 202 197 197 195 198 193 187
335 3 83 107 143 150 152 150 155 160 174 179 182 213 217 218 219 211 210 216 218 221 218 216 214 214 213 214 219 222 218 211 207 194 196 197 198 201 206 203 203 207 212 217 214 216 215 214 215 207 204 204 203 201 202 206 206 209 218 218 213 182 174 169 175 189 206 195 196 204 200 202 205 204 197 197 198 198 202 201 198 195 198 204 206
6 26 33 24 20 13 116 157 163 167 166 178 205 212 218 222 224 217 215 218 219 219 221 217 214 213 215 220 220 222 216 210 202 198 193 198 199 200 208 214 196 206 211 223 219 219 219 217 214 210 210 206 204 202 205 206 202 211 218 222 190 170 184 178 171 199 202 192 198 207 207 208 210 208 205 200 191 195 199 197 198 196 193 190 181
20 25 43 108 105 104 144 175 193 190 190 183 201 218 225 221 224 218 216 217 218 220 218 212 210 211 214 217 221 218 208 201 193 197 193 194 199 202 207 211 215 208 215 227 227 222 221 212 213 214 213 208 207 207 208 207 208 210 215 202 165 187 199 196 196 192 202 206 207 207 210 208 207 209 194 158 139 133 142 175 171 169 152 139 131
10 6 2 28 46 1 280 249 232 212 202 196 200 206 219 222 221 215 208 211 218 224 218 211 210 211 215 217 219 216 205 199 196 190 199 197 199 204 205 208 213 213 217 224 222 222 216 213 213 217 215 212 206 200 191 207 215 219 204 162 194 201 206 201 198 198 211 214 212 213 213 202 200 185 165 158 155 171 171 169 158 171 165 162 152
6 357 348 12 10 2 347 327 276 234 223 214 204 208 217 227 222 212 205 205 209 219 223 213 209 207 211 214 210 203 201 199 201 203 195 198 199 208 209 214 216 218 223 233 234 224 223 219 221 221 223 214 215 213 214 210 213 190 149 189 200 209 207 205 199 204 211 216 217 223 216 161 106 125 173 173 179 173 168 164 170 174 168 178 179
2 355 11 23 8 341 328 318 317 281 250 218 216 222 217 219 213 207 204 204 200 209 213 213 207 200 201 200 198 198 203 197 201 202 199 197 204 203 200 199 198 194 209 219 223 226 222 220 214 187 182 156 183 166 180 189 195 186 199 203 211 214 216 217 216 219 223 218 221 189 112 135 181 191 179 183 174 163 163 166 176 174 178 172 189
5 0 7 9 358 340 321 309 304 284 227 255 244 237 226 215 209 200 211 194 202 200 204 212 207 202 198 200 201 203 197 204 208 202 199 193 194 200 201 204 201 199 211 210 215 213 199 186 196 197 179 193 185 185 187 193 198 199 204 208 213 215 209 201 207 212 212 204 204 195 197 181 188 183 184 172 173 164 169 172 178 171 172 180 192
5 4 0 334 336 347 333 312 327 336 339 142 169 248 286 282 280 254 247 230 220 248 280 223 212 195 203 208 203 203 206 211 214 200 196 191 198 200 207 207 205 209 214 212 208 170 196 213 202 186 188 188 179 171 183 197 203 199 206 211 211 212 209 210 215 220 211 207 208 199 197 193 191 183 182 179 158 167 173 175 171 170 166 186 198
352 351 354 352 342 335 329 339 348 347 357 19 12 255 276 292 261 143 160 334 318 277 250 294 304 258 212 223 218 224 233 243 176 193 200 199 201 205 211 211 206 210 189 132 164 189 195 199 198 197 201 196 201 206 197 194 200 203 207 202 207 211 212 213 216 216 210 211 211 206 197 198 196 183 185 180 166 161 168 183 168 176 186 186 196
6 354 345 338 337 347 341 349 356 1 353 353 352 344 304 311 301 111 127 152 184 235 299 284 284 302 273 240 220 218 237 243 216 194 197 198 202 207 211 209 201 179 171 162 167 193 199 201 200 204 199 203 211 210 204 205 204 206 206 199 207 208 207 216 211 206 210 210 209 206 202 201 197 190 190 173 161 158 163 172 180 185 191 193 200
13 4 353 345 342 341 351 3 0 8 350 345 349 341 342 29 99 318 304 235 147 140 118 73 277 235 271 289 319 244 295 330 271 258 233 214 208 210 209 193 174 172 152 162 194 202 209 212 213 203 191 203 213 215 216 210 213 212 208 204 204 206 212 220 203 204 208 208 203 208 205 202 199 189 188 166 164 169 172 174 179 186 191 196 200
7 8 356 343 346 1 1 1 0 347 335 354 6 357 358 347 345 346 348 347 7 42 96 104 117 179 187 213 211 199 203 179 104 92 95 66 240 227 182 160 154 165 170 186 192 213 211 214 216 211 206 206 212 213 217 217 213 214 211 214 216 207 210 205 195 209 208 205 206 209 204 204 193 183 188 178 173 161 160 174 181 183 193 199 198
10 8 4 3 4 8 8 7 3 351 355 1 5 10 8 354 333 348 1 13 15 30 18 1 39 59 37 8 23 30 45 182 168 141 138 136 137 138 124 121 141 203 204 208 199 209 213 213 217 215 210 208 211 210 216 218 213 210 213 217 216 216 214 197 198 198 199 200 204 204 199 197 197 199 186 175 168 165 178 190 195 194 191 192 190
9 6 2 3 4 9 9 11 7 9 6 3 5 8 6 6 6 2 359 12 22 22 16 13 331 349 30 32 29 26 18 22 36 90 152 142 146 145 144 177 174 194 204 209 209 211 213 214 215 219 212 216 214 213 214 217 214 211 212 217 215 213 213 200 196 201 204 203 199 193 186 198 193 191 182 174 175 183 189 193 195 196 194 189 187
12 10 7 4 0 4 9 9 11 9 9 11 13 15 12 11 9 9 10 14 11 10 19 10 10 25 35 31 10 3 25 52 71 101 140 162 170 166 182 170 189 193 206 217 218 225 221 226 220 223 220 218 218 217 213 218 218 214 212 211 218 202 152 162 206 211 207 197 182 182 190 195 201 191 180 184 194 200 200 195 197 193 195 187 171
16 19 18 14 8 7 11 10 12 12 19 20 18 18 19 21 18 14 14 14 7 10 16 19 22 27 16 354 359 10 341 12 77 74 50 72 134 210 232 216 212 208 211 221 220 216 224 229 229 228 232 228 235 233 226 221 213 211 208 212 195 159 175 195 212 197 169 182 188 188 192 198 195 193 194 196 195 197 199 195 189 190 192 188 187
9 9 9 7 19 19 20 18 18 21 22 23 24 24 25 23 21 21 23 20 17 19 18 22 25 22 12 346 343 340 346 351 359 339 3 55 289 308 286 283 239 234 238 240 238 237 243 245 245 246 251 252 248 247 237 234 221 221 215 211 190 181 188 208 204 191 186 194 197 197 196 197 197 200 200 197 194 195 194 189 192 192 191 193 198
4 7 5 7 17 18 21 23 24 29 25 24 24 25 28 28 29 29 25 23 22 21 23 23 22 20 4 352 346 338 352 354 347 336 328 334 342 271 227 238 265 262 263 260 256 244 245 251 256 254 247 243 241 240 221 212 213 219 219 212 189 199 204 205 207 187 189 195 198 196 193 198 201 203 204 208 206 198 195 195 198 198 200 195 182
5 7 4 9 9 14 21 21 28 28 28 29 26 30 30 26 29 30 29 31 28 26 27 27 24 14 10 2 360 357 8 17 7 6 358 346 337 333 315 303 277 273 267 272 277 275 267 261 255 252 253 251 236 223 213 207 213 220 227 223 200 203 214 217 207 196 193 192 197 197 198 193 184 183 199 211 219 213 209 202 195 193 190 179 183
13 12 15 12 12 19 19 21 20 22 27 28 30 30 29 30 29 29 29 30 30 28 30 27 20 12 10 12 12 10 26 26 14 13 9 4 357 344 327 313 311 307 305 300 297 295 280 263 257 251 251 249 246 236 224 219 215 220 226 230 220 207 208 219 218 213 202 199 199 200 200 197 191 194 203 205 202 205 199 199 196 191 185 180 186
18 18 16 16 20 22 20 19 17 19 22 25 26 23 27 31 32 30 32 30 29 29 30 27 20 13 15 12 13 18 37 31 27 23 18 10 1 352 350 348 340 332 315 301 290 291 289 286 278 266 255 248 240 235 224 224 216 221 227 230 230 224 218 218 217 218 216 212 207 205 203 201 198 200 203 203 204 194 198 199 199 197 192 189 189
25 20 19 21 18 21 21 21 21 21 22 22 26 27 25 26 26 26 28 30 29 29 30 27 22 18 17 15 17 24 29 27 25 21 18 15 12 9 359 346 342 336 333 325 312 303 291 288 286 287 284 278 267 250 236 224 218 219 220 226 231 232 227 220 214 214 210 214 211 204 204 203 202 204 206 204 198 198 201 201 202 202 198 198 191
26 24 23 24 21 21 18 18 18 21 20 22 26 27 24 26 27 24 22 23 23 26 29 28 25 25 23 22 21 23 24 23 21 18 16 14 11 8 1 355 351 343 339 335 330 320 311 300 294 290 284 276 273 267 259 243 225 223 220 219 226 229 231 227 223 214 206 207 211 211 209 206 205 204 205 201 199 201 204 202 202 201 201 201 192
23 25 26 27 28 25 23 21 15 21 23 23 24 23 22 24 27 25 23 21 20 20 22 24 26 28 27 24 21 21 19 20 21 16 13 11 10 4 358 356 350 346 343 338 333 332 324 316 301 286 279 279 272 269 262 256 245 235 228 224 226 230 230 230 226 214 211 209 209 211 212 210 210 206 203 200 200 202 207 205 202 203 203 200 200
24 25 21 26 25 27 27 23 24 20 25 23 23 22 23 22 20 23 26 23 20 19 20 19 20 23 21 23 21 19 16 17 17 16 14 10 8 3 358 355 352 349 348 345 343 339 334 329 322 313 299 288 277 266 258 251 246 241 239 236 237 234 235 229 226 219 218 217 213 210 208 206 206 207 204 201 201 204 207 206 203 202 202 201 201
25 26 26 21 21 25 24 25 25 23 28 26 22 21 21 19 19 20 18 19 21 22 20 18 17 16 18 17 16 15 14 12 12 15 13 11 6 3 360 360 356 351 346 347 348 346 343 338 333 329 323 312 301 284 270 261 253 247 243 239 239 238 235 229 227 223 220 215 210 210 206 206 206 202 198 197 201 199 200 208 206 207 205 202 193
27 27 24 23 24 22 21 20 22 27 24 23 25 26 22 21 20 19 17 18 19 19 19 19 16 13 13 12 10 11 10 9 9 8 8 5 4 4 2 0 359 356 354 354 350 349 347 344 340 338 335 332 329 327 318 299 284 270 254 249 242 240 238 233 230 227 217 210 208 205 202 202 201 199 194 195 200 199 203 206 201 200 198 196 193
24 28 32 27 25 23 23 24 24 23 19 21 26 27 23 24 24 22 18 18 17 17 16 16 16 13 12 10 10 10 11 10 8 4 3 2 2 1 1 2 3 2 0 357 354 353 351 349 348 345 341 337 339 340 342 338 334 323 307 282 268 254 246 241 236 231 214 200 200 195 195 192 192 189 188 192 196 194 199 201 197 194 193 190 187
20 24 31 32 32 28 27 24 21 19 18 18 19 21 21 20 20 20 19 21 22 19 16 14 12 12 12 9 6 6 6 6 4 1 1 0 359 359 1 2 3 1 360 0 359 358 355 354 351 349 346 347 347 349 350 350 343 337 334 334 319 287 259 234 229 221 203 186 177 179 179 182 177 179 175 175 174 183 181 169 163 171 180 180 171